Portada
METAR-TAF:

METAR-TAF

Aeropuertos :

Searcy Municipal Airport

Searcy, Arkansas, Estados Unidos

latitud: 35-12-43N, longitud: 091-44-14W, altitud: 81 m

Observación

El informe se hizo hace 37 minutos, a las 06:56 UTC
Viento calma
Temperatura 22°C
Humedad 100%
Presión 1015 hPa
Visibilidad: 16.1 km
Cielo nuboso a una altura de 4000 ft

METAR: KSRC 060656Z AUTO 00000KT 10SM BKN040 22/22 A2996 RMK AO2 SLP141 T02220217

Hora: 02:33 (07:33 UTC)


TAF: falta

Observaciones y pronósticos meteorológicos de más de 4000 aeropuertos (mensajes METAR y TAF).

Los puntos amarillos y rojos representan las estaciones disponibles.

Ponga el ratón en el punto deseado para ver el nombre de la estación.

Haga clic para ver las observaciones y los pronósticos meteorológicos.

Para cambiar el mapa : haga clic en los botones verdes con una cruz de color negro para hacer un zoom, en el botón verde con un guión para alejar o en las flechas verdes para mapas adyacentes.


METAR-TAF: